Find Heinrich-Hertz-Satellit

NORAD ID: 57213 Int'l Des: 2023-093 Owner: DLR Country: D operational
HEOCIRCULARGSOGEO

リアルタイム位置

3D地球を読み込み中...

Heinrich-Hertz-Satellitについて

説明を読み込み中...

次回通過

Passes for default location (London). Set your location on the main map for personalized predictions.

高度履歴

Loading altitude history...

軌道要素

1 57213U 23093A 26105.65633898 .00000000 00000-0 00000+0 0 9996
2 57213 0.0162 215.3814 0000766 269.1117 316.2896 1.00268357 10287
Epoch: Apr 15, 2026 • Age: 17 hours

現在のステータス

高度 35789.9 km
速度 3.07 km/s
衛星直下点 0.04°N, 0.67°E
打ち上げ日 Jul 5, 2023
運用期間 2.7 years
タイプ other

技術仕様

分類 Payload
質量 3408.00 kg
乾燥質量 3200.00 kg
総質量 3408.00 kg
長さ 3.00 m
直径 2.00 m
スパン 15.00 m
形状 Box + 2 panels
製造者 OHB
バスタイプ Luxor
フェーズステータス In Orbit
所有者/国 DLR/D

Most Searched